SONATE-2

Last updated on Mon Nov 03 2025 00:03:22 GMT+0000 (Coordinated Universal Time)

1 59112U 24043Q 25306.33108779 .00025202 00000+0 58808-3 0 9997 2 59112 97.5310 81.1720 0009067 313.7781 46.2715 15.42166567 92746
UTC large
Height (km)
Speed (km/s)
/
Latitude / Longitude
Inclination (degrees)
Orbital Period (minutes)
Azimuth
Elevation
Range (km)
Doppler Factor

Next 0 passes for location: London (51.5072 / 0.1276)

Sorry there are no passes over London.